DateTimeUTC,F1_A11,F1_S11,BsB_S11,BsG_S11,BsR_S11,BbsB_S11,BbsG_S11,BbsR_S11,BaB_A11,BaG_A11,BaR_A11,Tu_S11,T_S11,Uu_S11,U_S11,P_S11,T1_A11
2021-11-28T14:00:00Z,00000200,21000000,,,,,,,-000.12,-000.30,-000.03,18.6,25.7,,00.0,0626.2,30.8
2021-11-28T14:01:00Z,00000200,21000000,,,,,,,-000.16,-000.11,-000.20,18.6,25.7,,00.0,0626.2,30.8
2021-11-28T14:02:00Z,00000200,21000000,,,,,,,0000.00,-000.27,0000.11,18.5,25.7,,00.0,0626.2,30.8
2021-11-28T14:03:00Z,00000200,61000000,,,,,,,0000.13,0000.38,-000.13,18.5,25.7,,00.0,0626.2,30.8
2021-11-28T14:04:00Z,00000200,41000000,-000.28,0000.33,0000.03,-000.46,-000.19,-000.11,-000.24,0000.12,-000.33,18.6,25.5,,00.0,0627.1,30.8
2021-11-28T14:05:00Z,00000200,01000000,0000.13,0000.23,0000.02,0000.56,0000.10,-000.03,0000.21,-000.19,0000.34,18.6,25.5,,00.0,0627.1,30.8
2021-11-28T14:06:00Z,00000200,01000000,0000.73,0000.05,0000.07,0000.40,-000.02,-000.02,0000.03,0000.11,-000.14,18.6,25.5,,00.0,0627.2,30.9
2021-11-28T14:07:00Z,00000200,01000000,0000.11,0000.27,-000.22,0000.29,0000.19,-000.26,-000.15,0000.14,0000.03,18.6,25.5,,00.0,0627.2,30.8
2021-11-28T14:08:00Z,00000200,01000000,-000.29,0000.09,0000.42,0000.13,0000.03,0000.02,-000.07,-000.03,0000.16,18.6,25.5,,00.0,0627.2,30.9
2021-11-28T14:09:00Z,00000200,01000000,0000.67,-000.14,-000.01,-000.16,-000.14,-000.24,0000.28,-000.15,-000.05,18.6,25.5,,00.0,0627.2,30.9
2021-11-28T14:10:00Z,00000200,01000000,0000.80,0000.32,0000.22,-000.69,0000.13,0000.16,-000.04,0000.18,-000.02,18.6,25.5,,00.0,0627.2,30.9
2021-11-28T14:11:00Z,00000200,01000000,0000.65,-000.37,-000.26,0000.14,0000.12,0000.14,0000.05,-000.13,0000.10,18.6,25.5,,00.0,0627.2,30.9
2021-11-28T14:12:00Z,00000200,01000000,0000.80,0000.24,-000.03,-000.26,-000.09,0000.19,0000.22,0000.18,-000.05,18.6,25.5,,00.0,0627.2,30.9
2021-11-28T14:13:00Z,00000200,01000000,-000.28,0000.19,-000.18,0000.11,-000.07,-000.03,-000.01,-000.11,0000.07,18.5,25.4,,00.0,0627.2,30.8
2021-11-28T14:14:00Z,00000200,01000000,0000.77,0000.60,-000.14,0000.35,0000.19,0000.11,0000.11,0000.40,-000.15,18.4,25.3,,00.0,0627.2,30.8
2021-11-28T14:15:00Z,00000200,01000000,0000.35,0000.09,-000.02,0000.11,0000.40,0000.03,-000.03,-000.11,0000.06,18.3,25.3,,00.0,0627.2,30.8
2021-11-28T14:16:00Z,00000200,01000000,0000.33,0000.07,0000.09,0000.65,0000.12,0000.02,0000.07,-000.06,0000.36,18.3,25.3,,00.0,0627.3,30.8
2021-11-28T14:17:00Z,00000200,01000000,0001.20,0000.25,-000.11,-000.59,0000.31,-000.26,0000.45,0000.21,0000.06,18.3,25.2,,00.0,0627.3,30.8
2021-11-28T14:18:00Z,00000200,01000000,0001.09,0000.26,0000.38,-000.46,0000.17,0000.03,-000.21,0000.36,-000.14,18.3,25.2,,00.0,0627.3,30.8
2021-11-28T14:19:00Z,00000200,01000000,0001.04,0000.61,-000.22,-000.59,0000.16,-000.34,-000.05,-000.35,0000.15,18.3,25.2,,00.0,0627.4,30.8
2021-11-28T14:20:00Z,00000200,01000000,0000.15,0000.36,0000.04,0000.34,-000.17,0000.42,0000.01,-000.07,-000.20,18.3,25.2,,00.0,0627.4,30.8
2021-11-28T14:21:00Z,00000200,01000000,0000.49,0000.25,0000.20,-000.69,0000.13,-000.09,0000.29,0000.34,0000.20,18.3,25.2,,00.0,0627.4,30.8
2021-11-28T14:22:00Z,00000200,01000000,0000.52,0000.12,-000.08,0000.22,0000.35,0000.20,0000.04,0000.12,-000.42,18.3,25.2,,00.0,0627.4,30.9
2021-11-28T14:23:00Z,00000200,01000000,0000.12,0000.48,0000.16,-000.11,-000.10,0000.41,0000.06,-000.33,0000.07,18.3,25.2,,00.0,0627.4,30.8
2021-11-28T14:24:00Z,00000200,01000000,0000.53,0000.09,-000.07,-000.23,-000.32,0000.03,-000.22,0000.16,0000.17,18.3,25.2,,00.0,0627.4,30.8
2021-11-28T14:25:00Z,00000200,01000000,0000.25,0000.38,0000.16,0000.37,0000.02,0000.29,0000.58,0000.06,-000.05,18.4,25.3,,00.0,0627.4,30.9
2021-11-28T14:26:00Z,00000200,01000000,0000.60,-000.02,-000.02,0000.49,-000.09,-000.24,-000.46,0000.04,0000.59,18.4,25.3,,00.0,0627.4,30.9
2021-11-28T14:27:00Z,00000200,01000000,0000.85,0000.19,0000.00,0000.51,0000.08,-000.12,0000.19,0000.13,-000.47,18.4,25.3,,00.0,0627.5,30.9
2021-11-28T14:28:00Z,00000200,01000000,0000.86,0000.37,0000.15,-000.02,0000.11,-000.20,-000.38,-000.25,-000.08,18.4,25.3,,00.0,0627.5,30.9
2021-11-28T14:29:00Z,00000200,01000000,0000.74,-000.01,0000.01,0000.25,0000.13,0000.32,0000.36,0000.14,-000.14,18.3,25.3,,00.0,0627.5,30.8
2021-11-28T14:30:00Z,00000200,01000000,0000.09,0000.37,-000.17,0000.12,0000.09,-000.30,0000.24,0000.18,0000.60,18.3,25.2,,00.0,0627.5,30.8
2021-11-28T14:31:00Z,00000200,01000000,0000.17,0000.20,0000.11,0000.11,0000.28,-000.12,0000.30,0000.22,0000.13,18.3,25.2,,00.0,0627.5,30.8
2021-11-28T14:32:00Z,00000200,01000000,0000.62,0000.09,0000.35,-000.29,-000.18,-000.05,-000.01,0000.30,-000.09,18.3,25.2,,00.0,0627.5,30.8
2021-11-28T14:33:00Z,00000200,01000000,0000.57,0000.02,-000.07,-000.25,0000.10,-000.22,0000.18,-000.14,0000.39,18.3,25.2,,00.0,0627.6,30.8
2021-11-28T14:34:00Z,00000200,01000000,0000.13,0000.20,0000.08,0000.30,-000.26,-000.04,0000.17,0000.29,0000.04,18.3,25.2,,00.0,0627.6,30.8
2021-11-28T14:35:00Z,00000200,01000000,0001.32,0000.16,0000.26,-000.38,-000.04,0000.03,-000.13,0000.12,-000.32,18.3,25.2,,00.0,0627.6,30.8
2021-11-28T14:36:00Z,00000200,01000000,0000.60,0000.03,0000.05,0000.00,-000.20,-000.09,0000.12,-000.17,0000.26,18.3,25.2,,00.0,0627.6,30.8
2021-11-28T14:37:00Z,00000200,01000000,0001.37,0000.34,0000.37,0000.03,0000.22,0000.16,0000.25,0000.31,0000.02,18.3,25.2,,00.0,0627.6,30.8
2021-11-28T14:38:00Z,00000200,01000000,0001.01,0000.18,-000.25,0000.19,0000.06,-000.36,-000.31,-000.65,0000.05,18.3,25.2,,00.0,0627.7,30.8
2021-11-28T14:39:00Z,00000200,01000000,0000.86,0000.59,0000.04,0000.17,0000.35,0000.13,0000.16,0000.16,-000.51,18.3,25.2,,00.0,0627.7,30.9
2021-11-28T14:40:00Z,00000200,01000000,0000.17,-000.04,0000.02,0000.46,0000.13,0000.05,-000.04,0000.13,0000.25,18.2,25.1,,00.0,0627.6,30.8
2021-11-28T14:41:00Z,00000200,01000000,0000.14,0000.08,0000.19,-000.02,0000.18,0000.27,0000.37,0000.20,0000.09,18.1,25.1,,00.0,0627.7,30.8
2021-11-28T14:42:00Z,00000200,01000000,0000.33,0000.15,-000.01,-000.03,-000.12,0000.37,-000.10,0000.22,0000.20,18.0,25.0,,00.0,0627.7,30.7
2021-11-28T14:43:00Z,00000200,01000000,0001.31,0000.19,-000.00,0000.30,-000.13,0000.45,-000.01,-000.29,-000.16,18.0,25.0,,00.0,0627.7,30.7
2021-11-28T14:44:00Z,00000200,01000000,0000.06,0000.09,-000.01,-000.51,0000.18,-000.00,0000.33,0000.03,-000.08,17.9,24.9,,00.0,0627.7,30.7
2021-11-28T14:45:00Z,00000200,01000000,0000.15,-000.05,-000.11,0000.03,0000.31,-000.40,-000.47,-000.19,-000.14,17.8,24.9,,00.0,0627.8,30.7
2021-11-28T14:46:00Z,00000200,01000000,0000.20,0000.59,-000.08,0000.34,-000.03,0000.15,-000.42,-000.25,-000.04,17.8,24.8,,00.0,0627.8,30.7
2021-11-28T14:47:00Z,00000200,01000000,0000.82,0000.01,0000.12,0000.48,0000.29,0000.14,0000.60,0000.54,0000.42,17.8,24.8,,00.0,0627.8,30.7
2021-11-28T14:48:00Z,00000200,01000000,0000.59,0000.21,0000.18,0000.16,-000.20,-000.04,0000.32,0000.12,-000.08,17.8,24.8,,00.0,0627.8,30.7
2021-11-28T14:49:00Z,00000200,01000000,0000.97,-000.03,0000.09,0000.16,0000.06,0000.18,-000.27,-000.10,-000.05,17.8,24.8,,00.0,0627.8,30.8
2021-11-28T14:50:00Z,00000200,01000000,0000.43,0000.46,-000.07,0000.01,-000.05,0000.24,0000.22,-000.13,-000.05,17.8,24.8,,00.0,0627.8,30.8
2021-11-28T14:51:00Z,00000200,01000000,0000.82,0000.38,0000.00,-000.08,0000.06,-000.14,-000.04,0000.55,0000.29,17.8,24.8,,00.0,0627.8,30.8
2021-11-28T14:52:00Z,00000200,01000000,-000.24,0000.61,-000.17,0000.19,-000.10,0000.15,-000.01,-000.13,-000.04,17.9,24.8,,00.0,0627.9,30.8
2021-11-28T14:53:00Z,00000200,01000000,-000.07,0000.08,0000.30,0000.28,0000.15,0000.25,0000.23,-000.18,-000.14,17.9,24.9,,00.0,0627.9,30.8
2021-11-28T14:54:00Z,00000200,01000000,0000.13,0000.13,0000.05,0000.50,0000.09,-000.17,0000.14,0000.38,-000.06,17.9,24.9,,00.0,0627.9,30.9
2021-11-28T14:55:00Z,00000200,01000000,0000.32,0000.42,0000.02,-000.43,0000.17,0000.07,0000.23,-000.03,0000.35,17.9,24.9,,00.0,0627.9,30.8
2021-11-28T14:56:00Z,00000200,01000000,0001.25,0000.05,-000.06,-000.58,0000.16,0000.30,0000.25,0000.56,-000.02,18.0,24.9,,00.0,0627.9,30.8
2021-11-28T14:57:00Z,00000200,41000000,,,,,,,0000.28,0000.56,0000.95,18.0,24.9,,00.0,0627.9,30.8
2021-11-28T14:58:00Z,00000200,61000000,,,,,,,-000.11,-000.49,-000.37,17.7,25.0,,00.0,0626.9,30.8
2021-11-28T14:59:00Z,00000200,21000000,,,,,,,0000.28,0000.17,0000.32,17.6,25.1,,00.0,0626.9,30.8
